Weather in Samsun

Turkey     41°17′25″N   36°20′01″E
temp.,
°C
wind,
m/s
gust,
m/s
humid.,
%
clouds,
%
prec.,
mm/h
press.,
hPa
HPBL,
m
8 may, sat
sat800:00+14sw3376100 0.0 101530
03:00+15sw4469100 0.0 101345
06:00+14sw556786 0.0 101363
09:00+21sw465543 0.0 1012350
12:00+25wsw68426 0.0 10111271
15:00+25n1445100 0.0 10111581
18:00+14nw249598 8.9 1015170
21:00+13w1193100 9.7 101713
9 may, sun
sun900:00+12ese1199100 1.2 101577
03:00+13n3599100 4.9 1015341
06:00+10nw71590100 10.2 1017889
09:00+9nw51293100 16.1 10221131
12:00+10nnw5982100 3.8 10251047
15:00+12nnw676517 4.1 10251428
18:00+10nnw577110 0.0 10271229
21:00+7wnw247968 0.1 1029291
10 may, mon
mon1000:00+7w22802 0.1 102979
03:00+5w22852 0.1 102828
06:00+5sw32864 0.0 102845
09:00+10ene11625 0.0 1028980
12:00+12ne436244 0.1 10271246
15:00+11ne446225 0.1 10261056
18:00+10ne34690 0.0 1026751
21:00+6w11830 0.1 102621
11 may, tue
tue1100:00+5wsw22860 0.0 102527
03:00+4sw22850 0.0 102428
06:00+4sw32840 0.0 102338
09:00+10ese12630 0.0 1022826
12:00+12ene32617 0.0 10211093
15:00+12ene436795 0.0 1019808
18:00+10ene2372100 0.0 1019545
21:00+6s1182100 0.0 101938
12 may, wed
wed1200:00+5sw22834 0.0 101718
03:00+5sw22760 0.0 101620
06:00+6sw22730 0.0 101520
09:00+12ene11600 0.0 1014423
12:00+14ene32652 0.0 1013650
15:00+14ne43766 0.0 1013511
18:00+12ene238129 0.0 1014420
21:00+8sse11910 0.0 101416